sat.trackr.live / text

‹ back to catalog

STARLINK-11730 [DTC]

NORAD 64074 · 2025-107L

PAYLOAD ACTIVE UNKNOWN

§ Identity

Operator
Country
US
Launch date
2025-05-21
Launch site
AFETR
Launch vehicle
Mass (kg)
RCS (m²)

Purposes: comms

External: N2YO · Heavens-Above · Gunter

§ Orbital elements

Epoch: 2026-05-24T14:27:22.514688Z

Period
91.66 min
Inclination
42.9998°
Eccentricity
0.0000367
Mean motion
15.70946900 rev/d
Perigee alt
355.9 km
Apogee alt
356.4 km
Semi-major
6,734.3 km
B*
1.3333e-3
RAAN
0.9687°
Arg perigee
219.1982°
Mean anomaly
140.8859°
Rev number
5,923

§ Raw data

STARLINK-11730 [DTC]1 64074U 25107L   26144.60234392  .00175075  00000+0  13333-2 0  99912 64074  42.9998   0.9687 0000367 219.1982 140.8859 15.70946900 59237

JSON: /api/v1/satellites/64074 · /tle

For live sub-satellite position, see the globe view (requires WebGL).

§ Visibility from observer

Set your observer location to see the next 7 days of passes ≥ 10°. The values pass through the URL so the page stays shareable.

No JS? Fill the form by hand. The geolocation button needs JavaScript.